Regional Weather Roundup
Issued by NWS

Home | Current Version | Previous Version | Text Only | Print | Product List | Glossary Off
Versions: 1 2 3 4 5 6 7 8 9 10 11 12 13 14 15 16 17 18 19 20 21 22 23 24 25 26 27 28 29 30 31 32 33 34 35 36 37 38 39 40 41 42 43 44 45 46 47 48 49 50

000
ASUS43 KIND 260309
RWRIN

WEATHER ROUNDUP FOR INDIANA
NATIONAL WEATHER SERVICE INDIANAPOLIS IN
1000 PM EST TUE NOV 25 2014

NOTE: "FAIR" INDICATES FEW OR NO CLOUDS BELOW 12,000 FEET WITH NO
SIGNIFICANT WEATHER AND/OR OBSTRUCTIONS TO VISIBILITY.

* - STATION DOES NOT REPORT WEATHER SUCH AS PRECIPITATION OR FOG.

+ - STATION NOT QUALITY CONTROLLED BY THE NATIONAL WEATHER SERVICE.
    USE DATA WITH CAUTION...ESPECIALLY DEWPOINT AND RELATIVE
    HUMIDITY OBSERVATIONS.

INZ001>003-010>013-019-020-260400-
NORTHWEST INDIANA

CITY           SKY/WX    TMP DP  RH WIND       PRES   REMARKS
GARY /AIRPORT/ CLOUDY    26  19  76 S5        30.21R WCI  20
KNOX *+        CLOUDY    24  19  79 S7        30.21R WCI  16
LA PORTE +     CLOUDY    26  20  80 S7        30.21R WCI  18
MICHIGAN CITY+ CLOUDY    27  18  69 SE5       30.21R WCI  21
MONTICELLO +   CLOUDY    25  20  79 CALM      30.21F
RENSSELAER +   CLOUDY    27  23  86 S7        30.21S WCI  19
VALPARAISO     CLOUDY    23  17  78 S5        30.21R WCI  17

$$

LMZ046-743>745-260400-
SOUTHERN LAKE MICHIGAN

STATION/POSITION TIME  TEMP WIND        PRES
                       AIR  DIR/SP/G
                 (UTC) (F)  (DEG/KT/KT) (MB)
MICHIGAN CITY    0300   24  120/  7/  9   N/A

$$

INZ004-005-014>016-021>024-260400-
NORTH CENTRAL INDIANA

CITY           SKY/WX    TMP DP  RH WIND       PRES   REMARKS
GOSHEN         CLOUDY    26  18  71 SW3       30.21R
LOGANSPORT +   CLOUDY    27  19  74 S3        30.23S
PERU/GRISSOM   CLOUDY    25  24  93 S6        30.20F WCI  18
ROCHESTER +    CLOUDY    28  23  80 CALM      30.22S
SOUTH BEND     CLOUDY    26  18  71 SE6       30.21R WCI  19
WARSAW +       CLOUDY    27  19  74 CALM      30.21S

$$

INZ006>009-017-018-025>027-260400-
NORTHEAST INDIANA

CITY           SKY/WX    TMP DP  RH WIND       PRES   REMARKS
ANGOLA *+      CLOUDY    27  19  74 CALM      30.19S
AUBURN +       CLOUDY    28  19  69 S3        30.22R
FORT WAYNE     CLOUDY    26  19  74 CALM      30.23S
HUNTINGTON +   CLOUDY    26  20  80 SW6       30.21S WCI  19

$$

INZ028-029-035-036-043>045-051>053-260400-
WEST CENTRAL INDIANA

CITY           SKY/WX    TMP DP  RH WIND       PRES   REMARKS
GREENCASTLE +  CLOUDY    27  21  80 CALM      30.21F
LAFAYETTE      CLOUDY    26  20  77 S3        30.22S
TERRE HAUTE    CLOUDY    29  21  72 CALM      30.22F

$$

INZ030>032-037>040-046>048-054>057-064-065-260400-
CENTRAL INDIANA

CITY           SKY/WX    TMP DP  RH WIND       PRES   REMARKS
CP ATTERBURY + CLOUDY    30  27  86 NW3       30.21R
COLUMBUS       PTCLDY    28  27  93 N3        30.21R
FRANKFORT +    CLOUDY    26  22  84 S3        30.22F
GREENWOOD *+   CLOUDY    28  21  74 NW7       30.20  WCI  21
INDIANAPOLIS   CLOUDY    27  21  78 NW7       30.20R WCI  19
-EAGLE CREEK   CLOUDY    27  21  78 VRB5      30.20S WCI  22
KOKOMO *+      CLOUDY    27  19  74 CALM      30.21F
MARION +         N/A     26  21  82 N3        30.21S
MT COMFORT *+  CLOUDY    28  19  69 W5        30.20S WCI  23
SHELBYVILLE    MOCLDY    30  24  78 N7        30.19S WCI  23
ZIONSVILLE +   CLOUDY    27  21  77 NW6       30.21S WCI  21

$$

INZ033-034-041-042-049-050-058-059-260400-
EAST CENTRAL INDIANA

CITY           SKY/WX    TMP DP  RH WIND       PRES   REMARKS
MUNCIE         CLOUDY    28  23  81 W5        30.20S WCI  23

$$

INZ060-061-067>069-081>083-085>088-260400-
SOUTHWEST INDIANA

CITY           SKY/WX    TMP DP  RH WIND       PRES   REMARKS
EVANSVILLE     PTCLDY    31  25  78 N5        30.22F WCI  26
HUNTINGBURG *+ MOCLDY    30  25  80 N7        30.22R WCI  23
WASHINGTON +   CLOUDY    30  26  84 N6        30.22S WCI  24

$$

INZ062-063-066-070>080-084-089>092-260400-
SOUTH CENTRAL AND SOUTHEAST INDIANA

CITY           SKY/WX    TMP DP  RH WIND       PRES   REMARKS
BLOOMINGTON    CLOUDY    30  24  78 VRB5      30.20S WCI  25
SEYMOUR +      CLOUDY    32  27  80 NE3       30.20

$$



USA.gov is the U.S. government's official web portal to all federal, state and local government web resources and services.